{"data":{"norad_id":53142,"intl_designator":"2022-083L","name":"STARLINK-4101","alt_names":[],"object_type":"PAYLOAD","status":"ACTIVE","operator":null,"country":"US","launch_date":"2022-07-17","launch_site_code":"AFETR","launch_vehicle":null,"mission":null,"orbit_class":"UNKNOWN","rcs_meters":null,"size_class":null,"mass_kg":null,"dimensions":null,"purposes":["comms"],"wikipedia_slug":null,"has_3d_model":false,"image_url":null,"decayed_at":null,"tle_current":{"epoch":"2026-09-19T22:26:44.486304Z","epoch_age_seconds":120976,"freshness":"FRESH","line1":"1 53142U 22083L   26262.93523711  .00000502  00000+0  25989-4 0  9992","line2":"2 53142  53.1620   6.7013 0001120  82.4038 277.7092 15.34389200230767","mean_motion":15.343892,"eccentricity":0.000112,"inclination_deg":53.162,"raan_deg":6.7013,"arg_perigee_deg":82.4038,"mean_anomaly_deg":277.7092,"bstar":2.5989e-5,"rev_number":23076,"period_min":93.848418641111,"perigee_km":461.96916256927,"apogee_km":463.50151797349,"semimajor_km":6840.8723402714,"source":"CELESTRAK","updated_at":"2026-09-20T09:00:40.180260Z"}}}